Weather History for Shenandoah, IA

Change the Weather History Date:

Tuesday, April 17, 2012

  Actual Average Record
Temperature  
Mean Temperature 54 °F -  
Max Temperature 71 °F 65 °F 89 °F (2002)
Min Temperature 37 °F 42 °F 23 °F (1956)
Degree Days  
Heating Degree Days 11    
Growing Degree Days 4 (Base 50)    
Moisture  
Dew Point 41 °F    
Average Humidity 65    
Maximum Humidity 93    
Minimum Humidity 35    
Precipitation  
Precipitation 0.00 in - - ()
Sea Level Pressure  
Sea Level Pressure 30.21 in    
Wind  
Wind Speed 6 mph (South)    
Max Wind Speed 22 mph    
Max Gust Speed 29 mph    
Visibility 10 miles    
Events Rain    
Averages and records for this station are not official NWS values.
T = Trace of Precipitation, MM = Missing Value Source: NWS Daily Summary

Daily Weather History Graph

Daily Weather History Graph

Search for Another Location

Airport:

Trip Planner

Search our weather history database for the weather conditions in past years. The results will help you decide how hot, cold, wet, or windy it might be!

Date:

Astronomy

Apr. 17, 2012 Rise Set
Actual Time 6:39 AM CDT 8:03 PM CDT
Civil Twilight 6:10 AM CDT 8:32 PM CDT
Nautical Twilight 5:36 AM CDT 9:06 PM CDT
Astronomical Twilight 4:59 AM CDT 9:43 PM CDT
Moon 4:37 AM CDT (4/17) 4:57 PM CDT (4/17)
Length of Visible Light 14h 21m
Length of Day
13h 24m
Waning Crescent, 12% of the Moon is Illuminated
Apr 17
Waning Crescent
Apr 21
New
Apr 29
First Quarter
May 5
Full
May 12
Last Quarter

Hourly Weather History & Observations

Time (CDT) Temp. Windchill Dew Point Humidity Pressure Visibility Wind Dir Wind Speed Gust Speed Precip Events Conditions
12:15 AM 39.2 °F 35.9 °F 35.6 °F 87% 30.25 in 10.0 mi SSE 4.6 mph - N/A   Scattered Clouds
12:35 AM 39.2 °F - 33.8 °F 81% 30.26 in 10.0 mi Calm Calm - N/A   Clear
12:55 AM 39.2 °F - 35.6 °F 87% 30.26 in 10.0 mi Calm Calm - N/A   Clear
1:15 AM 39.2 °F - 35.6 °F 87% 30.26 in 10.0 mi Calm Calm - N/A   Scattered Clouds
1:35 AM 41.0 °F - 37.4 °F 87% 30.26 in 10.0 mi Calm Calm - N/A   Scattered Clouds
1:55 AM 39.2 °F 37.0 °F 35.6 °F 87% 30.26 in 10.0 mi SE 3.5 mph - N/A   Clear
2:15 AM 37.4 °F - 33.8 °F 87% 30.25 in 10.0 mi Calm Calm - N/A   Clear
2:35 AM 39.2 °F - 35.6 °F 87% 30.26 in 10.0 mi Calm Calm - N/A   Scattered Clouds
2:55 AM 37.4 °F - 33.8 °F 87% 30.26 in 10.0 mi Calm Calm - N/A   Scattered Clouds
3:15 AM 37.4 °F - 33.8 °F 87% 30.26 in 10.0 mi Calm Calm - N/A   Scattered Clouds
3:35 AM 39.2 °F - 35.6 °F 87% 30.27 in 10.0 mi Calm Calm - N/A   Scattered Clouds
3:55 AM 37.4 °F - 35.6 °F 93% 30.27 in 10.0 mi Calm Calm - N/A   Clear
4:15 AM 37.4 °F - 35.6 °F 93% 30.27 in 10.0 mi Calm Calm - N/A   Scattered Clouds
4:35 AM 37.4 °F - 33.8 °F 87% 30.27 in 7.0 mi Calm Calm - N/A   Scattered Clouds
4:55 AM 39.2 °F 37.0 °F 35.6 °F 87% 30.28 in 7.0 mi NE 3.5 mph - N/A   Mostly Cloudy
5:15 AM 39.2 °F 37.0 °F 35.6 °F 87% 30.28 in 10.0 mi ENE 3.5 mph - N/A   Scattered Clouds
5:35 AM 39.2 °F 37.0 °F 35.6 °F 87% 30.28 in 10.0 mi NE 3.5 mph - N/A Rain Light Rain
6:15 AM 39.2 °F - 35.6 °F 87% 30.29 in 10.0 mi Calm Calm - N/A   Scattered Clouds
6:35 AM 39.2 °F - 35.6 °F 87% 30.30 in 10.0 mi Calm Calm - N/A   Scattered Clouds
6:55 AM 39.2 °F - 35.6 °F 87% 30.30 in 10.0 mi Calm Calm - N/A   Mostly Cloudy
7:15 AM 41.0 °F - 35.6 °F 81% 30.30 in 10.0 mi Calm Calm - N/A   Mostly Cloudy
7:35 AM 42.8 °F - 37.4 °F 81% 30.31 in 10.0 mi Calm Calm - N/A   Scattered Clouds
7:55 AM 42.8 °F - 39.2 °F 87% 30.32 in 10.0 mi Calm Calm - N/A   Scattered Clouds
8:15 AM 44.6 °F 43.1 °F 39.2 °F 81% 30.33 in 10.0 mi West 3.5 mph - N/A   Mostly Cloudy
8:35 AM 44.6 °F - 39.2 °F 81% 30.33 in 10.0 mi Calm Calm - N/A Rain Rain
8:55 AM 46.4 °F 42.9 °F 41.0 °F 81% 30.32 in 10.0 mi South 6.9 mph - N/A Rain Light Rain
9:15 AM 46.4 °F - 41.0 °F 81% 30.33 in 10.0 mi Calm Calm - N/A   Light Drizzle
9:35 AM 48.2 °F - 42.8 °F 82% 30.32 in 10.0 mi South 8.1 mph - N/A   Light Drizzle
9:55 AM 51.8 °F - 44.6 °F 76% 30.32 in 10.0 mi SSE 11.5 mph - N/A   Clear
10:15 AM 53.6 °F - 44.6 °F 72% 30.31 in 10.0 mi SSE 10.4 mph - N/A   Scattered Clouds
10:35 AM 55.4 °F - 44.6 °F 67% 30.30 in 10.0 mi SSE 15.0 mph - N/A   Clear
10:55 AM 53.6 °F - 44.6 °F 72% 30.29 in 10.0 mi SSE 12.7 mph 17.3 mph N/A   Clear
11:15 AM 55.4 °F - 44.6 °F 67% 30.30 in 10.0 mi SSE 10.4 mph - N/A   Clear
11:35 AM 57.2 °F - 46.4 °F 67% 30.29 in 10.0 mi SSE 11.5 mph - N/A   Scattered Clouds
11:55 AM 60.8 °F - 46.4 °F 59% 30.28 in 10.0 mi SSE 11.5 mph - N/A   Scattered Clouds
12:15 PM 62.6 °F - 46.4 °F 55% 30.26 in 10.0 mi SSE 15.0 mph 19.6 mph N/A   Clear
12:35 PM 62.6 °F - 44.6 °F 52% 30.25 in 10.0 mi South 17.3 mph - N/A   Clear
12:55 PM 64.4 °F - 44.6 °F 49% 30.24 in 10.0 mi South 13.8 mph 21.9 mph N/A   Clear
1:15 PM 64.4 °F - 44.6 °F 49% 30.24 in 10.0 mi South 18.4 mph 23.0 mph N/A   Clear
1:35 PM 64.4 °F - 46.4 °F 52% 30.22 in 10.0 mi South 13.8 mph 21.9 mph N/A   Clear
1:55 PM 66.2 °F - 44.6 °F 46% 30.21 in 10.0 mi South 18.4 mph 23.0 mph N/A   Clear
2:15 PM 66.2 °F - 46.4 °F 49% 30.20 in 10.0 mi South 17.3 mph 23.0 mph N/A   Clear
2:35 PM 69.8 °F - 44.6 °F 40% 30.19 in 10.0 mi South 16.1 mph 20.7 mph N/A   Clear
2:55 PM 69.8 °F - 44.6 °F 40% 30.18 in 10.0 mi South 16.1 mph 26.5 mph N/A   Scattered Clouds
3:15 PM 69.8 °F - 44.6 °F 40% 30.16 in 10.0 mi South 17.3 mph 24.2 mph N/A   Scattered Clouds
3:35 PM 71.6 °F - 42.8 °F 35% 30.15 in 10.0 mi South 17.3 mph 23.0 mph N/A   Scattered Clouds
3:55 PM 69.8 °F - 42.8 °F 38% 30.14 in 10.0 mi SSW 17.3 mph 26.5 mph N/A   Scattered Clouds
4:15 PM 71.6 °F - 42.8 °F 35% 30.13 in 10.0 mi SSW 18.4 mph 23.0 mph N/A   Scattered Clouds
4:35 PM 71.6 °F - 42.8 °F 35% 30.13 in 10.0 mi SSW 21.9 mph 28.8 mph N/A   Clear
4:55 PM 71.6 °F - 42.8 °F 35% 30.12 in 10.0 mi SSW 18.4 mph 25.3 mph N/A   Scattered Clouds
5:15 PM 69.8 °F - 42.8 °F 38% 30.12 in 10.0 mi South 16.1 mph 21.9 mph N/A   Scattered Clouds
5:35 PM 69.8 °F - 42.8 °F 38% 30.11 in 10.0 mi SSW 18.4 mph 21.9 mph N/A   Scattered Clouds
5:55 PM 69.8 °F - 42.8 °F 38% 30.11 in 10.0 mi SSW 17.3 mph 21.9 mph N/A   Clear
6:15 PM 69.8 °F - 42.8 °F 38% 30.11 in 10.0 mi South 16.1 mph 21.9 mph N/A   Clear
6:35 PM 69.8 °F - 42.8 °F 38% 30.10 in 10.0 mi South 17.3 mph 21.9 mph N/A   Clear
6:55 PM 69.8 °F - 42.8 °F 38% 30.10 in 10.0 mi South 16.1 mph 23.0 mph N/A   Clear
7:15 PM 68.0 °F - 42.8 °F 40% 30.10 in 10.0 mi South 13.8 mph 21.9 mph N/A   Clear
7:35 PM 66.2 °F - 44.6 °F 46% 30.10 in 10.0 mi South 13.8 mph 18.4 mph N/A   Clear
8:15 PM 64.4 °F - 44.6 °F 49% 30.10 in 10.0 mi South 12.7 mph - N/A   Clear
8:35 PM 62.6 °F - 44.6 °F 52% 30.10 in 10.0 mi South 11.5 mph - N/A   Scattered Clouds
8:55 PM 60.8 °F - 44.6 °F 55% 30.11 in 10.0 mi South 11.5 mph - N/A   Scattered Clouds
9:15 PM 60.8 °F - 44.6 °F 55% 30.11 in 10.0 mi South 10.4 mph - N/A   Scattered Clouds
9:35 PM 60.8 °F - 44.6 °F 55% 30.11 in 10.0 mi South 10.4 mph - N/A   Clear
9:55 PM 60.8 °F - 44.6 °F 55% 30.11 in 10.0 mi South 10.4 mph - N/A   Clear
10:15 PM 59.0 °F - 44.6 °F 59% 30.11 in 10.0 mi South 11.5 mph - N/A   Clear
10:35 PM 59.0 °F - 44.6 °F 59% 30.11 in 10.0 mi South 12.7 mph - N/A   Scattered Clouds
10:55 PM 57.2 °F - 44.6 °F 63% 30.10 in 10.0 mi South 13.8 mph - N/A   Clear
11:15 PM 57.2 °F - 44.6 °F 63% 30.10 in 10.0 mi South 15.0 mph - N/A   Scattered Clouds
11:35 PM 57.2 °F - 44.6 °F 63% 30.09 in 10.0 mi South 16.1 mph 20.7 mph N/A   Clear
11:55 PM 59.0 °F - 44.6 °F 59% 30.09 in 10.0 mi South 18.4 mph - N/A   Clear